Miscellaneous Local Product
Issued by NWS North Platte, NE

Home | Current Version | Previous Version | Text Only | Print | Product List | Glossary On
Versions: 1 2 3 4 5 6 7 8 9 10 11 12 13 14 15 16 17 18 19 20 21 22 23 24 25 26 27 28 29 30 31 32 33 34 35 36 37 38 39 40 41 42 43 44 45 46 47 48 49 50
000
AXUS43 KLBF 231210
MISLBF


WESTERN AND NORTH CENTRAL NEBRASKA HOURLY WEATHER ROUNDUP
NATIONAL WEATHER SERVICE NORTH PLATTE NE
600 AM CST THU FEB 23 2017

NOTE: "FAIR" INDICATES FEW OR NO CLOUDS BELOW 12,000 FEET WITH NO
SIGNIFICANT WEATHER AND/OR OBSTRUCTIONS TO VISIBILITY.

NOTE: STATIONS NOT REPORTING VARIABLES SUCH AS SKY/WEATHER OR
PRESSURE ARE PROVIDED BY RAWS AND APRS NETWORKS AND ARE NOT UNDER
NATIONAL WEATHER SERVICE QUALITY CONTROL.

...OBSERVATIONS IN AND NEAR THE EASTERN PANHANDLE OF NEBRASKA...

CITY           SKY/WX    TMP DP  RH WIND       PRES   REMARKS
PINE RIDGE     LGT SNOW  28  27  96 NE14      29.81R FOG     WCI  17
CHADRON        SNOW      29  27  92 NE17      29.79S VSB 1/2 WCI  17
ALLIANCE       SNOW      28  26  92 NE13      29.72S VSB 1/2 WCI  17
SIDNEY         CLOUDY    31  28  89 NE15      29.68S WCI  20
CRESCENT LAKE    N/A     29  29  98 NE13G23     N/A  WCI  19
$$

...OBSERVATIONS IN NORTHERN NEBRASKA AND FAR SOUTHERN SOUTH DAKOTA...

CITY           SKY/WX    TMP DP  RH WIND       PRES   REMARKS
WINNER         CLOUDY    30  24  78 NE15      29.88F WCI  19
VALENTINE      LGT SNOW  28  25  88 NE12      29.84F VSB 1   WCI  18
THEDFORD       LGT SNOW  30  30  99 NE16G22   29.79F WCI  19
AINSWORTH      LGT SNOW  29  29 100 NE14      29.84F WCI  18
O`NEILL        CLOUDY    31  29  94 NE15      29.86R WCI  20
ORD            CLOUDY    31  29  92 NE16      29.80F FOG     WCI  20
BROKEN BOW     CLOUDY    31  31 100 NE20      29.77R FOG     WCI  19
VALENTINE NWR    N/A     28  27  97 NE12G18     N/A  WCI  18
BUTTE            N/A     28  25  88 N14G22      N/A  WCI  17
HALSEY           N/A     29  29  99 NE9         N/A  WCI  21
CHAMBERS         N/A     30  29  95 NE3         N/A
EWING            N/A     31  30  95 NE6G14      N/A  WCI  25
$$

...OBSERVATIONS IN SOUTHWEST NEBRASKA AND FAR NORTHEAST COLORADO...

CITY           SKY/WX    TMP DP  RH WIND       PRES   REMARKS
HOLYOKE        CLOUDY    34  32  93 NE23      29.67F WCI  22
IMPERIAL       CLOUDY    33  31  92 NE15G26   29.67F WCI  23
OGALLALA       CLOUDY    34  32  92 NE14G25   29.70F WCI  24
NORTH PLATTE   CLOUDY    34  32  92 NE21G26   29.73F WCI  22
MCCOOK         CLOUDY    38  36  92 E23G30    29.68F WCI  27
LEXINGTON      CLOUDY    36  32  87 NE23G29   29.73F WCI  24
STAPLETON        N/A     30  29  95 NE9         N/A  WCI  22
GOTHENBURG       N/A     34  30  86 NE9         N/A  WCI  27
CALLAWAY         N/A     31  30  94 NE16        N/A  WCI  20
$$

...OBSERVATIONS IN CENTRAL LINCOLN COUNTY AREA...

CITY           SKY/WX    TMP DP  RH WIND       PRES   REMARKS
N.P. AIRPORT   CLOUDY    34  32  92 NE21G26   29.73F WCI  22
N.P. DOWNTOWN    N/A     33  30  90 NE16G23     N/A  WCI  22
N.P. SOUTHEAST   N/A     33  30  89 NE10G20     N/A  WCI  25
N.P. HILLCREST   N/A     32  31  97 E22G29      N/A  WCI  19
$$

...SOME OBSERVATIONS FROM AROUND THE REGION...

CITY           SKY/WX    TMP DP  RH WIND       PRES   REMARKS
LARAMIE        CLOUDY    25  19  78 SE23G35   29.48F WCI  10
CHEYENNE       LGT SNOW  27  25  92 E12       29.61F VSB 1   WCI  17
DENVER         CLOUDY    29  25  85 NE6       29.60F WCI  23
AKRON          FOG       31  30  96 E18G26    29.61S VSB 1/4 WCI  19
SCOTTSBLUFF    LGT SNOW  29  26  89 E9        29.73S VSB 1   WCI  20
RAPID CITY     CLOUDY    28  26  92 NE14      29.86S FOG     WCI  17
BISMARCK       CLOUDY    28  25  88 NW5       30.01R WCI  23
PIERRE         PTCLDY    27  23  85 N8        29.93F WCI  19
SIOUX FALLS    CLOUDY    32  28  85 NE15G23   29.87R WCI  22
OMAHA          CLOUDY    38  33  82 N15       29.81R WCI  29
GRAND ISLAND   CLOUDY    35  34  96 NE20G26   29.78R WCI  24
KANSAS CITY    CLOUDY    49  41  74 NE7       29.74R
WICHITA        PTCLDY    49  42  77 NE12      29.58S
OKLAHOMA CITY  CLOUDY    52  46  80 S9        29.56F
DALLAS         CLEAR     55  48  77 S7        29.62S
AMARILLO       PTCLDY    44  34  67 W8        29.65S
DODGE CITY     CLOUDY    48  34  58 SE15      29.54F
HAYS             N/A     45  36  70 NE18      29.59S
GOODLAND       MOCLDY    33  30  88 NE17G25   29.60F WCI  22
$$




USA.gov is the U.S. government's official web portal to all federal, state and local government web resources and services.